Location: Lafig�re
(44.4503°N, 4.0357°E)
Time: 06:16:39
(UTC+00:00)

Transit 2A Rocket - Pass Details

Date: 19 June 2021
Orbit: 590 x 913 km, 66.7° (Epoch: 26 July)

Event Time Altitude Azimuth Distance (km) Brightness Sun altitude
Exits shadow 02:19:39 - 275° (W) 2,502 7.4 -13.5°
Reaches altitude 10° 02:21:59 10° 297° (WNW) 1,950 7.0 -13.3°
Maximum altitude 02:24:02 13° 325° (NW) 1,781 7.1 -13.0°
Drops below altitude 10° 02:26:08 10° 353° (N) 2,002 7.9 -12.8°
Sets 02:29:44 0° 22° (NNE) 2,975 9.7 -12.4°
